[[{"header":{"parameterUnit":"m.s-1","parameterCategory":1,"la1":30.2991,"la2":30.254,"lo1":-89.0895,"lo2":-89.0444,"dy":0.0017,"dx":0.0017,"nx":28,"ny":28,"refTime":"2023-10-04T21:00:00:Z","depth":0,"parameterNumber":2,"parameterNumberName":"U-component_of_WINDS"},"data":[0,0,0,0,0,0,0,0,0,0,0,0,0,0,0,0,0,0,0,0,0,0,0,0,0,0,0,0,0,0,0,0,0,0,0,0,0,0,0,0,0,0,0,0,0,0,0,0,0,0,0,0,0,0,0,0,0,0,-3.6593,-3.6592,0,-3.6545,-3.6544,-3.6544,-3.6413,-3.6411,-3.6408,-3.6405,-3.636,-3.6361,-3.6363,0,0,0,0,0,0,0,0,0,0,0,0,0,-3.6576,-3.6577,-3.6593,-3.6592,-3.6591,-3.6545,-3.6544,-3.6543,-3.6414,-3.641,-3.6407,-3.6404,-3.636,-3.6361,-3.6363,0,0,0,0,0,0,0,0,0,0,0,0,0,-3.6562,-3.6578,-3.6593,-3.6521,-3.6514,-3.6545,-3.6544,-3.6543,-3.6415,-3.641,-3.6406,-3.6402,-3.6359,-3.6361,-3.6363,-3.6461,0,0,-3.637,-3.6371,0,0,0,0,0,0,0,0,-3.6563,-3.6562,-3.6532,-3.6526,-3.6518,-3.648,-3.6522,-3.6516,-3.6416,-3.6453,-3.6405,-3.64,-3.6404,-3.6402,-3.6402,-3.6459,-3.6457,-3.637,-3.6371,-3.6372,-3.6373,0,0,0,0,0,0,0,-3.6564,-3.6564,-3.6574,-3.6532,-3.6523,-3.6493,-3.6486,-3.652,-3.6453,-3.6449,-3.6439,-3.6435,-3.6399,-3.6401,-3.64,-3.6456,-3.637,-3.6372,-3.6373,-3.6374,-3.659,-3.6594,0,0,0,0,0,0,-3.6575,-3.6565,-3.6575,-3.6572,-3.653,-3.6496,-3.6489,-3.6497,-3.6452,-3.6441,-3.6439,-3.6429,-3.6399,-3.6398,-3.6398,-3.6508,-3.6372,-3.6374,-3.6375,-3.6585,-3.6591,-3.6596,0,0,0,0,0,0,-3.6575,-3.6577,-3.6577,-3.6566,-3.6564,-3.6501,-3.6511,-3.6498,-3.6499,-3.6444,-3.6432,-3.6452,-3.6396,-3.6395,-3.6446,-3.6505,-3.6375,-3.6377,-3.658,-3.6587,-3.6593,-3.673,0,0,0,0,0,0,-3.6575,-3.6577,-3.6613,-3.6568,-3.6565,-3.6624,-3.6515,-3.65,-3.6503,-3.649,-3.6453,-3.6443,-3.6392,-3.6443,-3.6448,-3.6505,-3.6379,-3.6575,-3.6583,-3.6591,-3.672,-3.6741,-3.6758,0,0,0,0,0,-3.6575,-3.6654,-3.6615,-3.6617,-3.6607,-3.6628,-3.6626,-3.6565,-3.6508,-3.6544,-3.6508,-3.6445,-3.6499,-3.645,-3.6454,-3.6513,-3.657,-3.6581,-3.6591,-3.6711,-3.6737,-3.6758,0,0,0,0,0,0,-3.6708,-3.6647,-3.6603,-3.667,-3.6655,-3.6606,-3.6648,-3.6594,-3.6595,-3.6583,-3.6508,-3.6501,-3.6562,-3.6543,-3.649,-3.6605,-3.6524,-3.6536,-3.6615,-3.6638,-3.6657,-3.6659,-3.638,0,0,0,0,0,-3.6746,-3.6766,-3.6712,-3.6776,-3.6771,-3.6712,-3.6718,-3.6672,-3.6654,-3.6648,-3.6616,-3.6602,-3.6616,-3.6626,-3.6636,-3.6718,-3.6708,-3.6761,-3.678,-3.6796,-3.6806,-3.6847,-3.687,-3.6629,-3.6629,-3.6628,0,0,-3.6823,-3.6792,-3.6809,-3.6802,-3.6785,-3.6809,-3.6707,-3.6737,-3.6754,-3.6653,-3.6697,-3.6674,-3.6654,-3.6721,-3.6748,-3.6706,-3.6871,-3.6809,-3.6822,-3.6823,-3.686,-3.6883,-3.6903,-3.6635,-3.6634,-3.6633,0,0,-3.6974,-3.6954,-3.7004,-3.6989,-3.6965,-3.6925,-3.6938,-3.6897,-3.6877,-3.6921,-3.6846,-3.6866,-3.6892,-3.688,-3.6878,-3.7028,-3.6969,-3.7034,-3.7132,-3.7174,-3.7193,-3.7209,-3.7261,-3.7281,-3.7044,-3.7045,-3.7045,0,-3.7073,-3.7104,-3.7038,-3.7072,-3.7071,-3.698,-3.7031,-3.7021,-3.7002,-3.7004,-3.6958,-3.6987,-3.6968,-3.703,-3.7066,-3.7068,-3.708,-3.7035,-3.7195,-3.7211,-3.7225,-3.7274,-3.7294,-3.7052,-3.7051,-3.7051,-3.705,0,-3.7227,-3.725,-3.7295,-3.7276,-3.7281,-3.7324,-3.7265,-3.7279,-3.7233,-3.7199,-3.7246,-3.7219,-3.7221,-3.7234,-3.719,-3.729,-3.7264,-3.7208,-3.7125,-3.7257,-3.7301,-3.732,-3.7063,-3.7061,-3.7058,-3.7056,0,0,-3.7458,-3.7404,-3.7421,-3.7411,-3.7379,-3.7396,-3.7436,-3.7437,-3.7449,-3.7441,-3.7472,-3.7496,-3.7444,-3.7441,-3.7396,-3.7433,-3.7552,-3.7372,-3.737,-3.7404,-3.7659,-3.77,-3.7723,-3.7514,-3.7518,-3.752,-3.766,0,-3.76,-3.7662,-3.7604,-3.7678,-3.7699,-3.7614,-3.7649,-3.7634,-3.7604,-3.7618,-3.7586,-3.7603,-3.7534,-3.7531,-3.7564,-3.7531,-3.7602,-3.752,-3.7543,-3.7544,-3.7547,-3.7746,-3.7789,-3.7923,-3.7678,-3.7681,-3.7683,0,-3.7772,-3.7769,-3.7845,-3.7807,-3.7814,-3.7846,-3.7842,-3.7858,-3.7839,-3.7815,-3.7813,-3.7758,-3.7796,-3.7717,-3.7768,-3.7714,-3.7721,-3.7706,-3.771,-3.7707,-3.7619,-3.7747,-3.7964,-3.7983,-3.771,-3.7708,-3.7706,0,-3.7931,-3.7947,-3.7993,-3.7989,-3.7947,-3.7971,-3.7955,-3.7932,-3.7937,-3.7935,-3.7938,-3.7942,-3.7943,-3.7948,-3.7896,-3.7844,-3.7954,-3.7871,-3.7934,-3.7936,-3.7959,-3.7958,-3.8177,-3.7968,-3.7968,-3.7967,-3.7967,0,-3.8093,-3.8142,-3.8064,-3.8093,-3.8146,-3.8081,-3.8136,-3.8111,-3.8092,-3.8116,-3.8045,-3.8069,-3.8,-3.8018,-3.7978,-3.8026,-3.8028,-3.801,-3.7998,-3.8014,-3.8016,-3.8015,-3.8004,-3.7972,-3.7971,-3.797,-3.7969,0,-3.8278,-3.8228,-3.8273,-3.823,-3.822,-3.8262,-3.8225,-3.8251,-3.8217,-3.8248,-3.8251,-3.8199,-3.8216,-3.8165,-3.8175,-3.8148,-3.8217,-3.8192,-3.8223,-3.8214,-3.828,-3.8274,-3.8504,-3.8531,-3.8307,-3.831,-3.8311,0,-3.8383,-3.8419,-3.838,-3.8389,-3.8377,-3.8394,-3.8398,-3.8337,-3.8344,-3.8327,-3.8355,-3.8366,-3.837,-3.8402,-3.8365,-3.8372,-3.8345,-3.8426,-3.8345,-3.8361,-3.8344,-3.8341,-3.8344,-3.8441,-3.8444,-3.8446,-3.8448,0,-3.8575,-3.8549,-3.8556,-3.8556,-3.8563,-3.856,-3.8553,-3.8566,-3.8499,-3.8512,-3.8527,-3.8531,-3.8541,-3.8552,-3.8552,-3.8537,-3.8482,-3.8474,-3.8489,-3.8505,-3.852,-3.8511,-3.8265,-3.8468,-3.8466,-3.8465,-3.8464,-3.8463,-3.8722,-3.8749,-3.8726,-3.8737,-3.8725,-3.872,-3.8741,-3.8711,-3.8722,-3.8723,-3.8687,-3.871,-3.8693,-3.8686,-3.8677,-3.8695,-3.8658,-3.868,-3.8685,-3.8691,-3.8701,-3.852,-3.8695,-3.8694,-3.8694,-3.8693,-3.8693,0,-3.8908,-3.8889,-3.89,-3.8891,-3.8901,-3.8848,-3.8838,-3.885,-3.887,-3.8858,-3.8864,-3.8883,-3.8894,-3.8859,-3.8866,-3.8887,-3.8862,-3.8891,-3.8887,-3.8885,-3.8734,-3.872,-3.8911,-3.8911,-3.8911,-3.8911,-3.8911,-3.8911,-3.9006,-3.9049,-3.9021,-3.9058,-3.9039,-3.906,-3.9058,-3.9054,-3.9043,-3.9066,-3.9075,-3.9052,-3.9031,-3.9036,-3.9044,-3.9034,-3.9039,-3.9076,-3.9057,-3.8917,-3.8895,-3.8875,-3.8861,-3.9078,-3.9078,-3.9205,-3.9206,-3.9207]},{"header":{"parameterUnit":"m.s-1","parameterCategory":1,"la1":30.2991,"la2":30.254,"lo1":-89.0895,"lo2":-89.0444,"dy":0.0017,"dx":0.0017,"nx":28,"ny":28,"refTime":"2023-10-04T21:00:00:Z","depth":0,"parameterNumber":3,"parameterNumberName":"V-component_of_WINDS"},"data":[0,0,0,0,0,0,0,0,0,0,0,0,0,0,0,0,0,0,0,0,0,0,0,0,0,0,0,0,0,0,0,0,0,0,0,0,0,0,0,0,0,0,0,0,0,0,0,0,0,0,0,0,0,0,0,0,0,0,2.007,2.007,0,2.0076,2.0076,2.0076,2.0107,2.0107,2.0108,2.0109,2.011,2.011,2.0109,0,0,0,0,0,0,0,0,0,0,0,0,0,2.0081,2.0081,2.007,2.007,2.007,2.0076,2.0076,2.0076,2.0106,2.0107,2.0108,2.0109,2.0111,2.011,2.0109,0,0,0,0,0,0,0,0,0,0,0,0,0,2.008,2.0081,2.007,2.0086,2.0087,2.0076,2.0076,2.0076,2.0106,2.0107,2.0108,2.0109,2.0111,2.011,2.0109,2.0081,0,0,2.0106,2.0105,0,0,0,0,0,0,0,0,2.008,2.008,2.0083,2.0085,2.0086,2.0092,2.0081,2.0077,2.0106,2.0099,2.0109,2.011,2.0103,2.0103,2.0101,2.0081,2.0081,2.0106,2.0105,2.0105,2.0105,0,0,0,0,0,0,0,2.008,2.008,2.0072,2.0083,2.0085,2.0092,2.0093,2.008,2.0094,2.01,2.0102,2.0102,2.0104,2.0102,2.0101,2.0081,2.0106,2.0105,2.0104,2.0104,2.0038,2.0037,0,0,0,0,0,0,2.0079,2.008,2.0072,2.0072,2.0086,2.0091,2.0092,2.0089,2.0095,2.0097,2.0101,2.0104,2.0103,2.0103,2.0102,2.0069,2.0105,2.0104,2.0103,2.0039,2.0037,2.0036,0,0,0,0,0,0,2.0079,2.0078,2.0072,2.0077,2.0076,2.0089,2.0085,2.0088,2.0087,2.0096,2.0098,2.0097,2.0104,2.0103,2.0086,2.0069,2.0103,2.0103,2.004,2.0038,2.0037,2.0003,0,0,0,0,0,0,2.0079,2.0078,2.0068,2.0076,2.0076,2.0057,2.0085,2.0088,2.0085,2.0088,2.0093,2.0094,2.0105,2.0087,2.0085,2.0069,2.0102,2.0042,2.0039,2.0037,2.0006,2.0001,1.9996,0,0,0,0,0,2.0079,2.0057,2.0067,2.0066,2.0064,2.0056,2.0055,2.0069,2.0084,2.0074,2.008,2.0094,2.0072,2.0085,2.0083,2.0066,2.0043,2.004,2.0038,2.0008,2.0002,1.9996,0,0,0,0,0,0,2.0044,2.0058,2.007,2.005,2.0052,2.0061,2.0048,2.0062,2.0058,2.0061,2.0077,2.0078,2.0058,2.0061,2.0075,2.0039,2.006,2.0057,2.0038,2.0032,2.0027,2.0026,2.0101,0,0,0,0,0,2.0035,2.0028,2.004,2.0021,2.0022,2.0035,2.0032,2.0042,2.0044,2.0045,2.005,2.005,2.0043,2.0038,2.0032,2.0007,2.0008,1.9994,1.9989,1.9985,1.9982,1.9968,1.9962,2.0027,2.0028,2.0028,0,0,2.0014,2.0021,2.0015,2.0014,2.0017,2.0009,2.0035,2.0025,2.0019,2.0043,2.0027,2.0031,2.0032,2.0011,2.0002,2.0013,1.9964,1.9982,1.9978,1.9977,1.9965,1.9959,1.9953,2.0026,2.0026,2.0026,0,0,1.9971,1.9976,1.9961,1.9964,1.9968,1.9978,1.9974,1.9982,1.9986,1.9971,1.9989,1.9981,1.9969,1.9969,1.9968,1.9927,1.994,1.9924,1.9898,1.9885,1.988,1.9875,1.986,1.9855,1.9921,1.9921,1.9921,0,1.9944,1.9934,1.9951,1.994,1.9939,1.9963,1.9947,1.9948,1.995,1.9948,1.996,1.9946,1.9949,1.9928,1.9918,1.9916,1.9912,1.9923,1.9879,1.9875,1.9871,1.9857,1.9851,1.9919,1.992,1.992,1.992,0,1.99,1.9893,1.988,1.9883,1.988,1.9867,1.9881,1.9876,1.9888,1.9895,1.988,1.9884,1.9879,1.9876,1.9886,1.9856,1.9863,1.9877,1.9898,1.9863,1.9849,1.9844,1.9917,1.9917,1.9918,1.9918,0,0,1.9834,1.9848,1.9843,1.9845,1.9852,1.9846,1.9834,1.9831,1.9826,1.9827,1.9816,1.9806,1.982,1.9818,1.9829,1.9817,1.9784,1.9833,1.9833,1.9823,1.9752,1.974,1.9733,1.9794,1.9793,1.9792,1.9751,0,1.9794,1.9774,1.979,1.9767,1.976,1.9783,1.9772,1.9775,1.9782,1.9776,1.9783,1.9776,1.9795,1.9794,1.9784,1.979,1.977,1.9794,1.9782,1.9782,1.978,1.9727,1.9714,1.9675,1.9746,1.9745,1.9745,0,1.9743,1.9743,1.972,1.9729,1.9727,1.9717,1.9716,1.9711,1.9714,1.972,1.9719,1.9733,1.972,1.9742,1.9724,1.974,1.9737,1.9739,1.9738,1.9736,1.976,1.9722,1.9663,1.9657,1.9737,1.9737,1.9738,0,1.9697,1.9691,1.9676,1.9677,1.9688,1.968,1.9684,1.9689,1.9687,1.9685,1.9684,1.9681,1.9679,1.9675,1.9688,1.9703,1.9668,1.9691,1.9672,1.9671,1.9662,1.9662,1.9601,1.9662,1.9662,1.9662,1.9662,0,1.9649,1.9633,1.9656,1.9647,1.963,1.9649,1.9631,1.9638,1.9642,1.9634,1.9653,1.9645,1.9662,1.9655,1.9665,1.9648,1.9647,1.9651,1.9653,1.9649,1.9648,1.9645,1.9648,1.9661,1.9661,1.9661,1.9661,0,1.9593,1.9608,1.9594,1.9606,1.9608,1.9595,1.9605,1.9597,1.9606,1.9595,1.9594,1.9607,1.96,1.9613,1.9607,1.9613,1.9591,1.9598,1.959,1.9591,1.9571,1.9572,1.9504,1.9496,1.9564,1.9563,1.9562,0,1.9561,1.955,1.9562,1.9558,1.9562,1.9556,1.9554,1.9571,1.9568,1.9572,1.9563,1.9558,1.9555,1.9543,1.9551,1.9547,1.9553,1.953,1.9553,1.9548,1.9552,1.9552,1.9551,1.9525,1.9524,1.9523,1.9523,0,1.9503,1.9511,1.9508,1.9508,1.9505,1.9505,1.9507,1.9503,1.9521,1.9517,1.9511,1.9509,1.9504,1.9498,1.9496,1.9499,1.9513,1.9516,1.9511,1.9505,1.9501,1.9502,1.9576,1.9517,1.9517,1.9518,1.9518,1.9518,1.9458,1.9449,1.9456,1.9452,1.9455,1.9456,1.9449,1.9458,1.9454,1.9452,1.9463,1.9454,1.9458,1.9457,1.9459,1.9452,1.9462,1.9455,1.9453,1.9451,1.9447,1.9503,1.9451,1.9452,1.9452,1.9452,1.9452,0,1.9399,1.9405,1.9402,1.9404,1.9401,1.9417,1.9419,1.9415,1.9408,1.9411,1.9408,1.9401,1.9396,1.9405,1.9401,1.9394,1.94,1.9392,1.9392,1.9392,1.9438,1.9443,1.9387,1.9387,1.9387,1.9387,1.9387,1.9387,1.9368,1.9355,1.9364,1.9352,1.9357,1.935,1.935,1.9351,1.9354,1.9346,1.9342,1.9349,1.9354,1.9351,1.9347,1.9349,1.9346,1.9336,1.934,1.9383,1.9389,1.9395,1.9399,1.9335,1.9335,1.9295,1.9295,1.9294]}]]